{"data":{"norad_id":63762,"epoch":"2026-09-20T18:41:30.713280Z","epoch_age_seconds":125805,"freshness":"FRESH","line1":"1 63762U 25089M   26263.77882770  .00040047  00000+0  31336-3 0  9996","line2":"2 63762  42.9997 196.6942 0002266 243.8363 116.2272 15.70894011 80812","mean_motion":15.70894011,"eccentricity":0.0002266,"inclination_deg":42.9997,"raan_deg":196.6942,"arg_perigee_deg":243.8363,"mean_anomaly_deg":116.2272,"bstar":0.00031336,"rev_number":8081,"period_min":91.667546627371,"perigee_km":354.81465980024,"apogee_km":357.86672509046,"semimajor_km":6734.4776924454,"source":"CELESTRAK","updated_at":"2026-09-21T09:00:35.094953Z"}}